Wind_Speed
123 120 119 118 117 116 116 115 115 114 113 113 112 112 111 111 111 111 111 111 111 111 111 111 111 110 110 111 111 111 112 113 113 114 115 116 117 118 120 121 123 125 127 129 131 134 136 138 139 140 141 141 141 141 140 139 139 138 138 138 137 136
124 122 121 120 119 118 117 117 115 115 114 113 112 112 112 112 111 111 111 111 111 110 110 110 110 109 109 109 110 110 111 112 113 114 115 116 116 117 118 119 121 122 124 126 128 130 132 135 137 140 142 143 144 145 145 144 143 142 141 141 141 141
125 124 123 122 121 120 118 117 116 115 115 114 113 113 112 112 112 112 112 111 111 111 111 111 110 110 110 110 110 110 111 112 112 113 114 115 116 117 117 118 119 120 121 123 125 127 129 131 134 136 139 141 144 146 147 147 147 147 146 145 144 144
127 127 126 124 122 120 118 117 116 116 115 115 114 114 114 113 112 112 112 112 112 112 112 111 111 111 111 111 111 111 112 112 112 113 114 114 115 116 117 117 118 119 119 121 122 123 125 127 129 132 134 137 139 142 144 146 148 149 149 149 148 147
130 128 126 123 121 119 118 117 116 116 116 115 115 115 114 114 113 113 112 112 112 112 112 112 111 111 111 111 111 111 112 111 112 112 112 113 114 114 115 116 117 117 118 119 120 121 122 124 125 127 128 130 132 135 138 141 143 146 148 149 150 150
130 127 125 122 120 119 118 117 117 117 116 116 115 115 114 113 113 113 113 113 112 112 112 112 111 111 111 111 111 110 110 110 110 110 110 111 111 112 113 114 115 116 117 118 119 120 121 122 123 124 124 125 126 128 129 132 135 137 140 144 147 149
129 127 124 122 121 120 119 118 118 117 116 115 115 115 114 114 113 113 112 112 112 111 110 109 109 108 108 107 107 106 106 106 106 106 107 107 108 109 110 111 112 113 114 115 117 118 119 121 122 122 122 123 123 124 124 125 127 129 131 133 137 141
129 126 124 123 122 120 119 119 118 117 116 116 116 115 115 114 113 112 112 111 109 108 106 105 103 102 102 101 101 101 101 101 101 102 102 103 104 105 106 107 108 110 111 112 113 115 116 118 119 120 121 122 122 123 123 123 123 124 125 126 128 130
128 126 124 123 121 120 119 119 118 118 117 117 116 115 115 114 113 111 109 107 105 103 101 99 98 98 97 97 97 97 97 97 98 98 99 100 101 102 103 104 105 106 108 109 110 111 113 114 116 117 118 119 120 121 122 122 122 122 122 123 124 125
127 125 123 122 121 120 119 119 118 118 117 116 115 114 113 111 109 107 104 102 100 98 97 96 96 96 95 95 95 95 95 95 96 96 97 98 99 100 100 101 102 104 105 106 107 108 110 111 112 113 115 116 117 118 119 120 120 121 121 122 123 123
126 124 122 121 120 120 119 119 118 117 116 115 113 111 109 106 103 101 99 97 96 95 95 95 95 95 94 94 94 94 94 94 95 95 96 97 97 98 99 100 101 102 103 104 106 107 108 109 110 111 112 113 114 115 115 116 117 118 119 119 120 122
124 122 121 121 121 120 119 118 116 114 112 110 108 105 102 100 98 96 95 95 94 94 94 94 94 94 94 94 94 94 94 94 94 95 95 96 97 98 98 99 100 101 102 102 104 105 106 107 108 109 110 110 111 112 112 112 113 114 115 116 117 118
124 123 122 122 121 119 118 116 113 110 107 104 102 99 97 96 95 95 94 94 94 94 94 93 93 93 93 93 93 93 94 94 94 94 95 95 96 97 97 98 99 99 100 100 101 102 104 105 106 107 107 108 109 109 109 109 109 110 111 112 113 114
124 124 123 121 120 117 115 112 108 105 102 100 98 97 95 95 95 95 94 94 94 94 93 93 93 93 93 93 93 93 93 93 93 93 93 94 94 95 95 96 97 97 97 98 99 100 101 102 103 105 105 106 107 107 106 105 105 106 107 109 110 111
124 123 121 119 116 113 109 106 104 101 100 98 97 96 95 95 95 95 95 94 94 93 93 92 92 92 92 92 91 91 91 91 91 91 91 91 92 92 93 94 94 95 95 96 96 97 98 99 100 102 103 103 104 104 103 102 102 102 104 105 106 107
122 120 117 113 110 107 104 102 101 99 98 98 97 96 96 96 95 95 94 93 93 92 91 91 90 90 89 89 89 89 89 89 89 89 89 89 89 90 91 91 92 92 93 94 94 94 95 97 98 99 100 100 100 100 100 100 100 100 101 102 103 104
117 114 111 108 105 103 102 100 99 98 98 97 97 96 96 96 95 94 93 93 91 90 90 89 88 88 88 88 88 88 88 88 89 89 88 88 88 89 89 90 90 91 92 92 92 92 93 94 96 96 96 96 97 97 97 97 97 98 98 99 101 102
111 109 107 105 104 102 101 100 99 98 97 97 96 96 96 95 95 94 93 92 91 90 89 88 88 88 88 88 88 89 89 89 89 89 88 88 89 89 89 90 90 90 91 91 91 91 91 93 93 93 93 94 94 94 94 94 94 94 96 97 99 100
107 106 105 104 103 102 101 99 98 97 97 96 96 96 96 95 95 94 93 92 92 91 90 89 89 89 89 89 89 89 89 89 88 88 88 88 89 89 89 90 90 90 91 91 92 91 91 91 92 92 92 92 92 91 90 90 91 91 93 95 97 97
106 105 104 103 102 101 99 98 97 97 96 96 96 96 96 96 96 95 95 94 93 91 90 89 89 88 88 88 88 88 88 88 88 88 88 88 88 89 89 89 89 90 91 91 91 91 90 90 91 91 91 91 90 88 87 87 88 89 90 92 93 95
105 105 103 102 101 99 99 98 97 97 96 96 96 95 96 96 96 95 95 93 92 90 89 89 89 88 88 88 88 88 88 88 88 88 88 88 88 88 89 89 89 90 91 91 91 90 89 89 90 91 90 89 87 86 85 85 85 86 88 89 90 92
105 104 103 101 100 99 98 97 96 96 95 95 94 95 95 95 95 94 94 92 91 90 89 89 89 89 89 89 89 89 88 88 87 87 87 87 86 86 87 88 88 88 90 90 90 89 89 88 89 90 89 87 85 84 83 83 83 84 85 86 87 89
104 103 102 101 99 98 97 96 95 94 94 94 94 95 95 95 95 94 93 92 90 90 90 90 90 90 89 89 88 88 87 87 86 85 85 85 85 85 85 86 86 86 87 88 88 87 87 88 88 89 88 86 84 83 82 82 82 82 82 83 85 86
104 103 101 99 98 97 96 95 94 94 94 94 94 95 95 95 94 94 93 92 90 90 90 90 90 89 88 88 87 87 87 86 85 85 85 84 83 83 84 84 84 84 84 85 85 84 85 85 86 86 86 84 82 81 81 81 81 81 81 81 83 83
104 102 100 98 96 96 96 95 94 94 94 94 94 94 94 94 94 93 92 91 89 89 89 89 88 88 87 87 86 86 86 86 85 84 83 82 81 81 81 81 81 80 80 81 81 82 82 83 83 83 82 81 80 79 79 79 79 79 79 80 81 81
103 101 100 98 96 96 96 95 94 94 93 93 93 93 93 93 93 92 90 89 88 88 88 87 87 87 86 86 86 85 85 84 83 81 81 80 78 77 78 78 78 77 77 78 79 80 81 81 80 80 79 77 76 77 77 77 77 77 77 77 78 79
102 101 100 98 97 96 95 94 94 93 93 92 92 92 92 92 91 90 89 88 87 87 86 86 86 86 85 85 84 83 82 81 80 79 78 77 75 75 75 75 74 74 74 75 76 78 79 79 79 78 76 75 74 74 74 74 75 75 75 75 76 77
101 100 98 97 95 94 94 93 93 92 92 91 91 91 91 90 89 89 88 87 86 86 85 85 85 85 84 83 82 81 80 79 78 77 76 75 74 74 74 73 71 71 72 73 75 76 77 78 77 76 74 73 72 72 73 73 72 72 72 72 73 74
98 97 96 94 93 92 92 91 90 90 90 89 89 89 89 88 88 87 87 86 85 85 84 84 84 83 82 81 80 79 78 78 77 76 76 75 74 73 73 71 71 71 70 71 74 75 76 77 76 75 74 73 72 72 72 72 71 70 69 69 70 70
95 94 93 92 91 90 89 89 88 88 88 87 87 87 87 87 86 85 85 84 83 83 83 83 82 81 80 79 78 78 77 77 76 76 75 75 73 72 71 71 70 70 70 71 72 74 75 76 75 74 73 72 72 71 70 70 70 70 68 68 68 68
92 91 90 89 88 88 87 87 86 86 86 85 84 84 84 84 84 83 83 82 82 82 81 81 80 79 78 77 77 76 76 76 75 75 74 74 73 71 70 70 70 70 69 70 71 72 73 74 74 73 72 71 71 70 69 69 69 69 68 67 67 67
89 88 87 87 86 86 86 86 85 84 83 83 82 82 82 82 81 81 81 81 80 80 80 79 78 77 76 75 75 75 75 75 75 74 73 73 73 71 69 69 69 69 69 69 70 70 71 72 72 72 71 70 70 69 68 67 67 67 67 66 66 66
86 86 86 85 85 85 85 85 84 83 82 81 80 80 80 80 80 80 80 79 78 78 77 77 76 75 74 74 74 73 74 74 76 76 74 72 71 71 70 69 69 68 68 68 69 69 70 70 70 70 69 69 69 68 68 67 66 65 65 65 65 66
85 85 85 85 85 85 85 84 83 81 80 80 79 79 79 79 80 80 79 78 77 76 76 75 74 73 73 73 73 73 72 73 74 76 77 75 71 68 67 68 69 68 68 67 67 68 68 69 69 69 68 68 67 67 67 67 66 65 65 65 65 65
84 84 83 83 83 84 84 83 82 80 80 79 79 79 79 79 79 78 77 76 76 75 75 74 73 72 71 71 72 72 72 72 72 73 76 78 75 70 65 64 64 66 67 67 66 65 66 66 67 67 67 66 66 66 66 66 66 65 64 65 65 65
83 82 82 82 82 83 83 83 81 79 79 79 79 79 79 79 78 77 77 76 76 75 75 74 72 72 71 71 71 72 72 72 71 71 73 75 77 74 70 64 60 60 62 65 66 66 65 64 64 64 64 64 64 64 64 64 65 65 64 64 64 65
81 80 79 80 80 82 82 82 80 79 80 80 79 78 78 77 77 77 77 76 76 75 75 74 73 72 71 71 72 72 72 71 70 70 70 72 73 74 73 69 64 59 58 59 62 64 64 63 62 62 61 62 62 62 62 63 64 65 65 64 64 64
80 79 78 78 79 80 81 80 79 79 79 79 78 77 77 76 77 77 76 76 75 74 74 73 73 72 72 72 72 72 72 71 69 68 69 71 71 70 70 70 67 64 60 58 59 60 61 60 60 59 58 59 59 59 60 60 61 62 63 64 64 64
Wind_Direction
303 302 301 300 299 298 297 296 295 294 293 292 291 290 289 288 287 287 286 285 284 284 283 282 282 281 280 279 278 277 276 275 274 273 272 271 270 268 267 265 264 263 262 261 260 259 259 258 258 257 257 257 257 257 257 257 257 256 256 256 256 256
303 302 301 300 299 298 297 296 295 294 293 292 291 290 290 289 288 287 286 286 285 284 283 282 281 280 279 278 278 277 276 275 274 274 273 272 270 269 268 267 266 264 263 262 261 260 259 258 258 257 257 256 256 256 257 257 257 256 256 256 256 256
303 302 301 300 300 299 298 297 296 295 294 293 292 291 290 289 288 288 287 286 286 285 284 283 282 281 280 279 278 277 276 275 274 273 272 272 271 270 269 268 267 266 264 263 262 261 260 259 259 258 257 257 256 256 256 256 256 256 256 256 255 255
302 302 302 301 299 298 297 296 295 294 294 293 292 291 290 290 289 288 288 287 286 285 285 284 283 282 281 280 278 277 276 275 274 273 272 271 270 270 269 268 267 266 265 264 264 263 262 261 260 259 258 258 257 257 256 256 256 256 256 256 256 255
303 302 301 300 299 298 297 296 295 294 293 292 292 291 291 290 290 289 288 287 286 285 285 284 283 282 281 280 279 278 277 275 274 273 272 271 271 270 269 268 267 267 266 265 264 264 263 263 262 261 260 260 259 258 258 257 257 256 256 256 256 255
303 301 300 299 298 297 296 295 294 293 293 292 292 291 291 290 289 288 287 287 286 286 285 284 284 283 282 281 280 279 278 277 275 274 273 272 271 270 269 268 268 267 266 266 265 265 264 264 264 263 263 262 261 261 260 259 259 258 257 257 256 256
302 301 300 299 298 297 296 295 294 293 293 293 292 292 291 290 289 288 288 287 287 286 285 285 284 283 282 281 280 279 278 277 276 275 274 273 272 271 270 269 269 268 267 266 266 265 265 265 265 264 264 264 263 263 262 261 260 260 259 258 257 257
301 300 299 298 297 296 296 295 294 294 294 293 292 292 291 290 290 289 288 288 287 287 286 285 284 283 282 281 280 279 278 278 277 276 275 274 273 273 272 271 270 269 268 267 267 266 266 265 265 265 264 264 264 263 263 262 262 261 261 260 259 258
301 299 298 298 297 296 296 295 295 294 293 293 292 292 292 291 291 290 289 289 288 287 286 285 284 283 282 281 280 280 279 278 277 276 275 274 274 273 272 272 271 270 270 269 268 268 267 266 266 265 265 264 264 264 263 263 263 262 262 261 261 260
300 299 298 297 297 296 295 294 294 294 293 293 293 292 292 291 291 291 290 289 289 288 287 286 285 284 283 282 281 280 279 278 277 276 275 275 274 273 273 272 272 271 270 270 269 268 268 267 266 266 265 265 264 264 264 263 263 263 262 262 261 261
299 298 297 296 295 295 294 294 294 294 293 293 293 292 292 291 291 291 290 289 288 288 287 286 285 284 283 282 281 280 279 278 277 277 276 275 274 273 272 272 271 270 270 270 269 269 268 268 267 267 266 266 265 265 265 264 264 263 263 263 262 262
298 297 296 295 295 295 294 294 294 294 293 293 292 292 292 292 291 290 290 289 288 287 286 285 284 284 283 282 281 281 280 279 278 277 276 275 274 274 273 272 272 271 271 270 270 270 270 269 269 268 268 267 267 266 265 265 265 264 264 264 263 263
297 296 296 296 296 295 295 295 294 294 293 293 293 293 292 292 291 290 289 288 288 287 286 286 285 284 284 283 282 281 280 279 278 277 276 276 275 274 274 273 272 272 271 271 271 271 270 270 270 269 269 268 267 267 266 266 265 265 265 265 264 263
297 297 297 296 296 296 296 295 295 294 294 294 294 293 293 292 291 290 289 288 288 287 287 286 286 285 284 283 282 281 280 279 278 278 277 276 275 275 274 274 273 272 272 271 271 270 270 270 270 270 269 269 269 268 268 267 266 266 265 265 264 264
297 297 297 296 296 296 295 295 295 295 295 294 294 293 292 291 290 290 289 288 288 287 287 286 285 284 284 283 282 281 281 280 279 278 277 276 276 275 274 274 273 273 272 271 271 270 270 269 269 269 269 269 269 269 269 269 268 267 266 265 265 264
297 296 296 295 295 295 295 295 295 295 294 294 293 293 292 291 290 290 289 289 288 288 287 286 286 285 284 284 283 283 282 281 280 279 278 277 277 276 275 275 274 273 272 271 271 270 270 269 269 268 268 268 269 269 269 269 269 268 268 267 267 266
296 295 295 295 295 294 294 294 294 294 294 293 293 292 291 291 291 290 290 289 289 288 288 287 287 286 286 286 285 284 283 283 282 281 280 280 279 278 278 277 276 275 274 273 272 271 270 270 269 269 269 268 268 268 268 268 268 268 268 268 267 267
295 295 295 294 294 294 294 294 294 294 293 293 293 292 292 292 291 291 290 290 289 289 288 288 288 288 287 287 286 285 285 284 283 283 283 282 281 281 280 279 278 277 277 276 275 273 272 271 271 270 269 269 268 268 267 267 267 267 267 267 266 266
294 294 294 294 294 294 294 294 294 294 294 293 293 293 293 293 292 292 291 291 290 290 289 289 289 288 288 287 286 286 285 285 285 284 284 283 283 282 281 281 280 280 279 278 277 276 275 274 273 273 271 270 269 268 268 268 267 267 266 266 265 265
294 293 293 294 294 294 294 294 294 294 294 294 294 294 293 293 292 292 291 291 290 290 290 290 289 288 288 288 287 287 286 286 286 285 285 284 284 283 283 282 282 281 280 279 278 278 277 276 276 274 273 272 271 270 270 269 268 267 266 266 265 265
293 293 293 294 294 294 294 294 294 294 294 294 293 293 292 291 291 291 290 290 290 290 290 290 290 289 289 288 288 287 287 287 286 286 285 285 284 284 283 283 282 282 281 280 280 279 278 278 277 276 275 274 273 272 271 270 269 268 267 267 266 266
293 293 293 293 294 294 294 294 294 294 293 293 292 292 291 291 291 291 290 291 291 291 291 291 290 290 289 289 288 288 287 287 286 285 285 284 284 283 282 282 281 281 280 280 280 280 279 278 277 276 276 275 274 273 272 271 270 269 269 268 267 266
293 293 293 293 294 294 294 294 294 293 293 293 293 292 292 291 291 291 291 292 292 292 292 291 291 290 289 289 288 288 287 286 286 285 284 284 283 283 282 281 280 280 279 279 279 279 278 277 277 276 276 275 275 274 273 272 271 270 269 269 268 267
293 293 293 294 294 294 294 294 294 294 293 293 293 292 291 291 291 291 292 292 293 292 292 291 290 290 289 289 288 288 287 287 286 285 285 284 283 283 282 281 281 280 280 279 279 279 278 277 276 276 276 275 275 274 273 273 271 271 270 269 269 268
293 293 294 294 295 294 294 294 294 293 293 292 292 291 291 291 291 291 292 292 292 291 290 290 289 289 289 288 288 288 287 287 287 286 285 284 283 283 282 281 281 281 280 280 280 279 278 277 277 276 276 276 276 275 274 273 272 271 271 270 270 269
293 294 294 295 295 294 294 294 293 293 292 292 291 291 291 291 291 291 292 291 291 291 290 290 289 289 289 289 288 288 288 287 287 286 285 284 283 283 282 281 281 281 281 281 280 280 279 278 277 277 277 277 276 276 275 274 274 273 272 271 271 270
293 294 294 294 294 294 294 293 293 292 292 291 291 291 291 291 291 291 291 291 291 291 290 290 290 289 289 289 288 288 288 287 287 286 285 284 284 283 282 281 282 282 281 281 281 280 280 279 278 278 278 278 277 276 276 275 274 274 273 273 272 271
293 293 293 293 293 293 293 292 292 291 291 291 291 291 291 291 292 292 292 292 291 291 291 290 290 290 289 289 289 288 288 287 287 286 285 285 284 283 283 283 283 282 282 281 281 280 280 280 279 279 279 279 278 277 276 276 275 274 274 273 273 272
292 292 292 293 292 292 291 291 291 291 290 291 291 291 291 292 292 292 291 291 291 291 290 290 290 290 289 289 289 288 288 287 287 286 286 286 285 285 285 285 284 283 282 282 281 280 280 280 280 280 280 279 279 278 277 277 276 275 274 273 273 272
292 292 292 292 291 291 290 290 290 290 290 290 291 291 291 291 291 291 291 291 290 290 290 290 290 290 290 289 289 289 288 288 287 287 286 286 286 286 286 286 285 284 283 282 281 280 280 280 280 280 280 279 279 278 278 277 277 276 275 274 273 272
292 292 292 291 290 290 290 290 289 290 290 290 291 291 291 291 290 290 290 290 290 290 290 290 290 290 290 289 289 289 289 288 288 287 287 287 286 286 286 285 285 284 283 282 281 281 280 280 280 280 280 279 279 278 278 277 277 276 276 275 274 273
291 291 291 290 290 290 290 290 290 290 290 291 291 291 290 290 290 290 290 290 290 290 290 290 290 290 290 290 290 290 289 289 288 287 287 286 287 286 286 285 285 284 283 283 282 281 281 281 281 281 280 280 279 279 278 277 276 276 275 275 274 273
291 290 290 291 291 291 291 290 291 291 291 292 291 291 291 291 291 291 291 291 291 290 290 290 290 290 290 290 290 289 289 289 289 288 287 285 285 286 286 286 285 284 283 283 282 282 281 281 281 281 281 281 280 280 279 279 277 277 276 275 274 273
291 291 292 292 292 292 291 291 292 292 293 292 292 292 292 292 292 291 291 291 291 290 290 290 290 290 290 290 290 289 289 288 288 289 288 287 285 284 284 285 285 284 283 282 281 281 281 281 281 281 281 281 281 281 280 280 279 278 278 277 275 274
292 292 292 292 292 292 292 292 293 293 293 293 293 293 293 293 292 292 292 292 291 291 291 291 291 291 291 290 289 289 288 288 288 288 288 288 288 286 283 282 282 283 283 282 281 280 279 280 280 281 281 281 281 281 281 281 280 279 278 277 276 276
293 293 293 293 293 293 293 293 294 294 294 294 293 293 293 293 293 292 292 292 292 292 292 292 292 292 291 290 290 289 288 288 287 287 287 288 288 288 286 284 281 280 281 281 281 281 280 279 279 280 280 281 281 280 280 280 280 279 278 277 277 276
293 293 293 293 293 293 293 293 294 294 293 293 293 293 292 292 292 292 292 292 292 292 292 293 292 292 292 291 290 289 288 288 287 287 287 286 286 287 288 287 285 282 279 279 279 279 279 279 279 279 279 280 279 279 279 279 279 279 279 278 277 276
293 293 293 293 293 292 292 292 292 292 292 292 292 292 292 292 291 291 291 292 292 292 293 293 293 292 292 291 290 289 288 288 288 287 286 285 285 286 286 287 288 286 284 281 279 278 278 278 278 278 278 277 277 276 276 277 277 278 278 277 277 276
Height
10524 10520 10517 10513 10510 10505 10502 10498 10495 10492 10488 10485 10482 10478 10474 10470 10466 10462 10459 10456 10452 10449 10446 10444 10442 10439 10437 10434 10431 10429 10426 10423 10421 10418 10416 10414 10412 10412 10411 10411 10410 10410 10409 10408 10408 10408 10408 10409 10410 10411 10412 10413 10414 10416 10417 10419 10421 10423 10424 10425 10428 10432
10506 10502 10499 10495 10491 10487 10483 10480 10476 10472 10468 10465 10462 10458 10454 10450 10446 10443 10439 10436 10433 10430 10428 10425 10423 10421 10418 10416 10413 10410 10407 10404 10401 10398 10395 10393 10391 10389 10388 10388 10388 10387 10387 10386 10386 10386 10386 10386 10386 10387 10389 10390 10391 10393 10395 10397 10400 10403 10405 10405 10407 10410
10489 10485 10482 10477 10473 10469 10465 10461 10456 10452 10448 10445 10442 10438 10434 10431 10427 10423 10420 10417 10413 10410 10407 10404 10401 10399 10397 10394 10392 10389 10386 10384 10381 10378 10375 10372 10370 10368 10367 10366 10365 10365 10365 10364 10363 10363 10363 10363 10363 10364 10366 10368 10369 10371 10373 10375 10378 10381 10384 10386 10388 10389
10473 10469 10465 10460 10455 10451 10447 10443 10438 10433 10429 10426 10422 10418 10414 10411 10408 10404 10401 10398 10394 10391 10387 10384 10382 10379 10376 10373 10370 10367 10364 10362 10360 10358 10355 10353 10350 10348 10347 10345 10344 10343 10343 10342 10341 10341 10341 10341 10341 10341 10343 10346 10348 10350 10352 10354 10357 10360 10363 10365 10368 10369
10457 10452 10447 10441 10438 10434 10430 10425 10420 10416 10412 10408 10405 10401 10397 10394 10390 10386 10382 10379 10375 10372 10369 10365 10363 10360 10357 10353 10349 10346 10343 10341 10339 10337 10335 10333 10330 10328 10326 10325 10324 10323 10322 10321 10320 10320 10319 10319 10320 10320 10322 10325 10328 10331 10332 10333 10336 10339 10343 10345 10347 10349
10439 10434 10428 10423 10420 10416 10411 10407 10401 10397 10394 10391 10387 10383 10380 10377 10372 10368 10364 10361 10357 10354 10351 10348 10345 10341 10338 10333 10329 10326 10323 10321 10319 10317 10315 10313 10310 10308 10306 10305 10304 10303 10302 10302 10301 10300 10300 10299 10300 10301 10303 10305 10308 10311 10313 10315 10316 10318 10322 10325 10327 10329
10420 10415 10409 10405 10401 10396 10392 10387 10382 10378 10375 10372 10369 10365 10361 10358 10354 10350 10347 10343 10340 10337 10334 10331 10328 10323 10319 10315 10311 10308 10305 10303 10300 10298 10296 10294 10291 10289 10287 10285 10284 10284 10284 10284 10283 10282 10282 10281 10281 10282 10284 10286 10288 10290 10293 10295 10297 10298 10301 10304 10307 10309
10401 10396 10391 10385 10381 10376 10372 10367 10363 10359 10356 10353 10349 10345 10342 10338 10335 10331 10328 10325 10322 10318 10315 10312 10309 10305 10300 10297 10294 10291 10289 10286 10284 10281 10278 10276 10273 10271 10269 10267 10266 10265 10265 10265 10264 10264 10264 10262 10262 10263 10265 10266 10267 10269 10271 10274 10276 10279 10280 10283 10285 10287
10383 10378 10373 10367 10362 10358 10353 10349 10345 10341 10338 10334 10331 10327 10324 10320 10316 10313 10310 10307 10303 10300 10297 10293 10290 10286 10283 10280 10277 10275 10272 10270 10267 10264 10261 10258 10256 10254 10252 10250 10249 10247 10247 10246 10246 10245 10244 10244 10244 10245 10246 10247 10247 10249 10251 10253 10256 10259 10261 10263 10264 10265
10366 10361 10355 10350 10345 10340 10336 10331 10328 10324 10321 10317 10314 10310 10306 10302 10299 10296 10293 10289 10286 10282 10279 10275 10272 10268 10265 10263 10261 10258 10256 10253 10250 10248 10244 10242 10240 10237 10236 10234 10232 10231 10229 10228 10227 10226 10225 10225 10225 10226 10227 10228 10228 10229 10232 10234 10236 10238 10241 10243 10244 10245
10348 10343 10338 10333 10328 10323 10319 10315 10312 10309 10305 10301 10297 10293 10290 10286 10283 10280 10276 10272 10269 10265 10262 10258 10255 10251 10248 10246 10244 10241 10239 10236 10234 10231 10228 10226 10224 10221 10219 10217 10215 10214 10212 10211 10209 10208 10207 10207 10207 10207 10207 10208 10210 10211 10213 10216 10217 10219 10221 10223 10225 10225
10331 10326 10321 10315 10310 10306 10303 10299 10296 10292 10289 10285 10281 10277 10274 10270 10267 10263 10260 10256 10252 10248 10245 10241 10238 10235 10232 10230 10227 10225 10223 10220 10217 10215 10212 10210 10207 10205 10203 10201 10199 10198 10197 10196 10194 10191 10190 10190 10190 10190 10190 10190 10191 10192 10195 10198 10199 10200 10202 10204 10206 10207
10312 10307 10301 10296 10292 10288 10284 10281 10277 10274 10271 10268 10264 10261 10258 10255 10251 10247 10243 10239 10236 10232 10229 10226 10222 10219 10216 10213 10211 10208 10206 10203 10201 10198 10196 10193 10190 10188 10186 10184 10183 10182 10181 10180 10179 10177 10174 10173 10172 10171 10171 10171 10171 10173 10176 10181 10184 10184 10184 10185 10186 10188
10293 10288 10283 10278 10273 10270 10266 10262 10259 10256 10253 10250 10248 10245 10242 10238 10234 10230 10227 10223 10220 10217 10214 10210 10207 10203 10200 10197 10194 10191 10188 10186 10184 10182 10179 10177 10175 10172 10170 10168 10166 10165 10164 10164 10163 10161 10159 10158 10156 10153 10152 10152 10152 10153 10158 10164 10168 10168 10167 10166 10166 10168
10276 10271 10266 10262 10257 10254 10250 10246 10244 10241 10238 10235 10232 10229 10226 10222 10218 10214 10211 10208 10205 10202 10199 10195 10191 10188 10184 10181 10178 10175 10172 10170 10167 10165 10163 10161 10159 10157 10154 10152 10150 10149 10148 10147 10146 10144 10143 10142 10140 10137 10136 10136 10136 10137 10141 10146 10149 10150 10148 10148 10148 10149
10261 10256 10251 10247 10243 10240 10236 10233 10230 10227 10224 10221 10217 10214 10210 10206 10203 10199 10196 10193 10190 10187 10183 10180 10176 10173 10169 10166 10163 10160 10157 10154 10151 10149 10147 10145 10143 10141 10138 10136 10134 10133 10131 10130 10129 10129 10128 10125 10122 10121 10120 10122 10123 10124 10125 10128 10130 10130 10130 10130 10130 10130
10245 10240 10236 10232 10229 10226 10223 10220 10218 10214 10211 10207 10202 10198 10194 10190 10187 10184 10181 10177 10174 10171 10168 10165 10162 10158 10155 10151 10148 10145 10141 10138 10136 10133 10131 10130 10128 10125 10122 10120 10118 10116 10114 10113 10113 10113 10111 10108 10106 10106 10106 10107 10109 10109 10110 10112 10113 10114 10114 10113 10112 10111
10230 10225 10221 10217 10214 10212 10209 10207 10204 10200 10196 10192 10188 10183 10179 10175 10172 10168 10165 10162 10159 10156 10153 10151 10148 10144 10140 10137 10133 10130 10127 10123 10121 10119 10117 10115 10112 10108 10106 10104 10101 10099 10097 10095 10094 10095 10094 10091 10089 10090 10092 10091 10092 10094 10096 10098 10100 10100 10099 10097 10095 10094
10217 10212 10208 10205 10202 10199 10196 10193 10190 10186 10182 10177 10173 10168 10164 10160 10156 10152 10149 10146 10143 10141 10139 10136 10133 10130 10126 10123 10119 10116 10112 10109 10106 10104 10102 10100 10097 10093 10090 10088 10086 10083 10081 10079 10077 10076 10077 10076 10073 10073 10074 10074 10075 10078 10082 10084 10085 10085 10083 10080 10079 10079
10203 10199 10196 10193 10189 10186 10183 10179 10176 10172 10168 10163 10159 10154 10150 10145 10141 10137 10134 10131 10128 10126 10124 10122 10119 10115 10111 10108 10105 10101 10098 10095 10092 10090 10088 10085 10083 10080 10076 10074 10072 10068 10065 10062 10061 10060 10062 10061 10057 10055 10056 10057 10059 10063 10066 10068 10068 10067 10066 10064 10064 10063
10189 10185 10183 10180 10176 10173 10169 10165 10162 10158 10154 10150 10146 10141 10137 10131 10127 10124 10120 10117 10114 10112 10110 10107 10103 10100 10097 10093 10090 10087 10084 10081 10079 10077 10074 10071 10069 10067 10063 10060 10058 10055 10050 10046 10045 10045 10046 10045 10042 10038 10038 10041 10044 10048 10050 10051 10051 10051 10049 10048 10048 10046
10175 10171 10169 10166 10163 10159 10156 10152 10149 10146 10142 10138 10133 10128 10123 10117 10114 10110 10106 10103 10101 10098 10095 10092 10088 10085 10082 10079 10076 10073 10070 10068 10066 10064 10061 10058 10056 10054 10051 10047 10044 10042 10037 10032 10031 10031 10030 10029 10027 10023 10022 10026 10030 10032 10034 10034 10034 10034 10033 10032 10031 10029
10161 10157 10154 10152 10149 10146 10142 10139 10135 10132 10127 10123 10118 10113 10108 10103 10098 10095 10092 10090 10088 10085 10081 10077 10074 10070 10067 10064 10062 10059 10056 10054 10053 10050 10047 10045 10044 10041 10038 10034 10031 10029 10025 10020 10018 10018 10015 10013 10012 10009 10008 10012 10015 10016 10017 10018 10018 10018 10018 10016 10014 10013
10146 10142 10140 10138 10135 10131 10128 10124 10120 10117 10113 10108 10104 10099 10093 10089 10084 10081 10079 10076 10074 10071 10068 10064 10060 10057 10054 10051 10048 10046 10043 10040 10039 10037 10034 10032 10031 10028 10024 10020 10018 10016 10013 10008 10005 10004 10001 9999 9997 9996 9996 9998 10001 10002 10002 10002 10002 10002 10002 10001 9999 9998
10132 10128 10126 10124 10121 10117 10113 10109 10106 10103 10099 10094 10090 10085 10080 10076 10072 10069 10066 10064 10061 10058 10054 10050 10047 10044 10041 10038 10035 10033 10030 10027 10025 10023 10020 10018 10017 10014 10011 10007 10005 10004 10001 9996 9991 9988 9987 9985 9984 9983 9984 9985 9986 9987 9987 9987 9986 9986 9987 9987 9985 9984
10118 10114 10111 10110 10107 10103 10099 10095 10092 10089 10084 10080 10076 10071 10067 10063 10059 10056 10054 10051 10049 10045 10041 10038 10034 10031 10028 10026 10023 10020 10017 10014 10012 10009 10006 10004 10003 10001 9998 9994 9993 9992 9989 9984 9979 9974 9972 9972 9971 9970 9971 9973 9974 9972 9972 9972 9971 9971 9972 9972 9971 9969
10105 10101 10098 10096 10093 10089 10086 10082 10078 10075 10070 10066 10063 10058 10054 10050 10047 10044 10041 10038 10036 10032 10028 10025 10021 10018 10016 10013 10010 10007 10004 10001 9999 9996 9993 9991 9990 9988 9985 9982 9981 9980 9977 9972 9967 9962 9958 9958 9958 9958 9959 9960 9961 9959 9957 9957 9957 9957 9958 9958 9957 9956
10094 10090 10086 10084 10081 10077 10074 10069 10065 10062 10058 10054 10050 10045 10041 10038 10034 10031 10028 10025 10022 10019 10016 10012 10009 10006 10003 10000 9997 9995 9991 9988 9986 9983 9980 9978 9977 9974 9972 9971 9970 9968 9965 9961 9955 9950 9947 9945 9945 9946 9947 9947 9947 9945 9944 9944 9944 9944 9945 9945 9943 9943
10083 10079 10076 10073 10069 10065 10061 10057 10054 10050 10046 10042 10038 10034 10029 10026 10022 10019 10015 10012 10010 10007 10003 10000 9996 9993 9990 9987 9984 9982 9978 9976 9973 9971 9967 9965 9964 9962 9960 9959 9957 9955 9953 9949 9943 9939 9937 9934 9933 9934 9935 9934 9933 9932 9931 9930 9930 9931 9933 9933 9932 9932
10070 10067 10064 10061 10057 10053 10049 10046 10043 10038 10034 10031 10027 10023 10018 10014 10011 10007 10004 10001 9998 9995 9991 9988 9984 9981 9978 9975 9972 9969 9966 9963 9960 9958 9955 9953 9952 9950 9948 9946 9944 9942 9940 9937 9932 9929 9926 9923 9922 9923 9923 9922 9920 9920 9919 9919 9917 9917 9919 9920 9920 9920
10058 10055 10051 10047 10044 10040 10037 10034 10031 10027 10023 10019 10016 10012 10007 10003 9999 9996 9992 9989 9986 9982 9979 9976 9972 9970 9967 9963 9960 9957 9953 9950 9947 9945 9943 9940 9938 9939 9938 9935 9932 9930 9928 9925 9921 9919 9916 9913 9911 9911 9911 9910 9909 9907 9907 9907 9906 9905 9907 9907 9907 9907
10045 10042 10037 10034 10031 10027 10024 10021 10019 10016 10012 10008 10004 10000 9995 9991 9988 9984 9980 9978 9974 9970 9967 9964 9961 9958 9955 9952 9949 9945 9941 9937 9933 9932 9932 9929 9926 9924 9925 9924 9922 9919 9916 9913 9910 9907 9906 9903 9901 9899 9899 9898 9897 9896 9895 9896 9895 9894 9895 9895 9895 9893
10032 10028 10024 10020 10017 10013 10010 10007 10005 10003 9999 9995 9991 9987 9983 9980 9976 9971 9968 9966 9962 9959 9955 9952 9949 9947 9944 9941 9938 9935 9931 9926 9920 9916 9917 9919 9918 9915 9912 9911 9910 9908 9906 9903 9900 9897 9894 9892 9891 9890 9888 9887 9886 9884 9883 9883 9883 9883 9883 9882 9882 9880
10017 10014 10010 10007 10003 10000 9996 9993 9992 9990 9986 9982 9978 9974 9970 9967 9963 9959 9955 9953 9950 9947 9943 9941 9939 9936 9933 9929 9926 9923 9921 9918 9912 9904 9899 9900 9905 9907 9905 9901 9898 9896 9894 9893 9891 9888 9884 9881 9880 9879 9878 9877 9875 9873 9872 9870 9870 9871 9870 9869 9868 9867
10004 10000 9997 9993 9990 9987 9982 9980 9979 9977 9972 9968 9965 9961 9958 9954 9951 9947 9944 9941 9938 9935 9932 9929 9928 9925 9922 9919 9915 9912 9909 9907 9904 9899 9890 9883 9883 9889 9894 9895 9892 9886 9882 9880 9879 9878 9876 9873 9871 9869 9867 9866 9865 9863 9861 9859 9858 9858 9859 9858 9856 9854
9992 9988 9984 9981 9978 9973 9969 9967 9966 9963 9959 9955 9952 9949 9945 9942 9938 9935 9932 9929 9926 9923 9920 9918 9916 9914 9911 9907 9904 9901 9898 9896 9894 9892 9886 9878 9871 9869 9872 9879 9882 9881 9876 9870 9866 9865 9865 9864 9863 9861 9858 9857 9855 9853 9851 9849 9846 9846 9847 9847 9845 9843
9979 9976 9973 9970 9966 9961 9957 9956 9955 9951 9947 9943 9940 9937 9934 9930 9927 9924 9920 9918 9915 9912 9909 9906 9904 9902 9899 9896 9892 9889 9887 9885 9883 9881 9878 9873 9867 9861 9858 9859 9864 9868 9869 9865 9859 9855 9854 9853 9853 9852 9850 9848 9846 9844 9842 9839 9837 9835 9834 9835 9834 9833
9966 9964 9962 9959 9955 9950 9947 9945 9944 9940 9935 9931 9929 9926 9922 9919 9916 9912 9909 9906 9903 9901 9898 9895 9893 9890 9887 9884 9881 9878 9875 9873 9872 9870 9867 9862 9859 9856 9852 9849 9848 9850 9852 9854 9852 9848 9845 9844 9843 9843 9842 9839 9837 9836 9833 9831 9828 9826 9824 9823 9822 9821